This demonstration page uses our WeatherBlox Daily Observations layout. Learn more.

38.88101, -77.10428

Hourly Observations for March 15, 2020

Temp ( °F °C ) Dew Point ( °F °C ) Humidity (%) Winds ( mph kmh ) Pressure ( in mb ) Visibility ( mi km ) Precip ( " mm )
12:52 am 00:52 Cloudy with Light Rain 42 5.6 39 3.9 89 89 NNE 15 24 30.4 1030 10 16.0934 0.03 0.762
1:52 am 01:52 Cloudy with Light Rain 42 5.6 39 3.9 89 89 NNE 12 19 30.41 1030 10 16.0934 0.001 0.001
2:27 am 02:27 Cloudy with Light Rain 42 5.6 39 3.9 89 89 NNE 10 17 30.41 1030 10 16.0934 0.01 0.254
2:39 am 02:39 Cloudy with Light Rain 41 5 38 3.3 89 89 NE 13 20 30.4 1030 10 16.0934 0.01 0.254
2:52 am 02:52 Cloudy with Light Rain 41 5 38 3.3 89 89 NNE 13 20 30.4 1029 10 16.0934 0.01 0.254
3:52 am 03:52 Cloudy with Light Rain 41 5 39 3.9 93 93 NE 12 19 30.39 1029 10 16.0934 0.01 0.254
4:20 am 04:20 Cloudy with Light Rain 41 5 39 3.9 93 93 NE 10 17 30.39 1029 10 16.0934 0.001 0.001
4:52 am 04:52 Cloudy with Light Rain 41 5 39 3.9 93 93 NE 12 19 30.4 1029 6 9.65604 0.01 0.254
5:52 am 05:52 Cloudy with Light Drizzle 41 5 39 3.9 93 93 ENE 8 13 30.4 1029 8 12.87472 0.001 0.001
6:52 am 06:52 Cloudy with Light Drizzle 41 5 39 3.9 93 93 NE 10 17 30.42 1030 10 16.0934 0.001 0.001
7:52 am 07:52 Cloudy with Light Drizzle 42 5.6 39 3.9 89 89 NNE 7 11 30.43 1030 10 16.0934 0.01 0.254
8:49 am 08:49 Cloudy with Light Drizzle 43 6 39 4 87 87 NE 12 19 30.45 1031 9 14.48406 0.001 0.001
8:52 am 08:52 Cloudy with Light Drizzle 42 5.6 39 3.9 89 89 NNE 10 17 30.45 1031 9 14.48406 0.001 0.001
9:52 am 09:52 Cloudy 43 6.1 39 3.9 86 86 NNE 12 19 30.47 1032 10 16.0934 0.001 0.001
10:12 am 10:12 Cloudy 43 6.1 39 3.9 86 86 NNE 10 17 30.48 1032 10 16.0934 0 0
10:52 am 10:52 Cloudy 44 6.7 39 3.9 83 83 NNE 13 20 30.48 1032 10 16.0934 0 0
11:52 am 11:52 Cloudy 46 7.8 39 3.9 77 77 NNE 10 17 30.49 1033 10 16.0934 0 0
12:52 pm 12:52 Cloudy 48 8.9 39 3.9 71 71 ENE 12 19 30.48 1032 10 16.0934 0 0
1:52 pm 13:52 Mostly Cloudy 49 9.4 38 3.3 66 66 NE 6 9 30.46 1032 10 16.0934 0 0
1:59 pm 13:59 Cloudy 49 9.4 37 2.8 64 64 ENE 10 17 30.46 1032 10 16.0934 0 0
2:06 pm 14:06 Mostly Cloudy 49 9.4 37 2.8 64 64 NE 6 9 30.46 1032 10 16.0934 0 0
2:52 pm 14:52 Mostly Cloudy 49 9.4 36 2.2 61 61 NE 7 11 30.44 1031 10 16.0934 0 0
2:57 pm 14:57 Mostly Cloudy 49 9.4 36 2.2 61 61 VRB 6 9 30.44 1031 10 16.0934 0 0
3:52 pm 15:52 Cloudy 50 10 35 1.7 57 57 Calm 30.45 1031 10 16.0934 0 0
4:52 pm 16:52 Mostly Cloudy 50 10 34 1.1 54 54 Calm 30.45 1031 10 16.0934 0 0
5:52 pm 17:52 Mostly Cloudy 50 10 35 1.7 57 57 ENE 3 6 30.45 1031 10 16.0934 0 0
6:52 pm 18:52 Partly Cloudy 50 10 33 0.6 52 52 Calm 30.46 1031 10 16.0934 0 0
7:52 pm 19:52 Mostly Clear 48 8.9 34 1.1 58 58 WNW 6 9 30.46 1032 10 16.0934 0 0
8:52 pm 20:52 Mostly Clear 45 7.2 35 1.7 68 68 W 5 7 30.47 1032 10 16.0934 0 0
9:52 pm 21:52 Clear 46 7.8 36 2.2 68 68 Calm 30.48 1032 10 16.0934 0 0
10:52 pm 22:52 Clear 45 7.2 35 1.7 68 68 SSW 3 6 30.48 1032 10 16.0934 0 0
11:52 pm 23:52 Mostly Clear 43 6.1 36 2.2 76 76 Calm 30.49 1032 10 16.0934 0 0

Powered by AerisWeather